,,PA_Meas_PMT16A,,PR_Meas_QMR101_102,,RH_Meas_QMH101,,SR_Meas_QMS101,,TA_Meas_QMH101,,GenWind,,GenWind,
time,status,PA,status,PR,status,RH,status,SR,status,TA,status,DirAvg,status,SpdAvg,
2013-09-04, 00:00:05,VALID,918.733,VALID,0,VALID,97.0308,VALID,0,VALID,19.5273,VALID,228,VALID,0,
2013-09-04, 00:01:05,VALID,918.71,VALID,0,VALID,97.0385,VALID,0,VALID,19.5288,VALID,228,VALID,0,
2013-09-04, 00:02:05,VALID,918.676,VALID,0,VALID,97.0232,VALID,0,VALID,19.4883,VALID,228,VALID,0,
2013-09-04, 00:03:05,VALID,918.647,VALID,0,VALID,97.0232,VALID,0,VALID,19.5093,VALID,228,VALID,0,
2013-09-04, 00:04:05,VALID,918.602,VALID,0,VALID,97.0385,VALID,0,VALID,19.4883,VALID,228,VALID,0,
2013-09-04, 00:05:05,VALID,918.559,VALID,0,VALID,97.0461,VALID,0,VALID,19.4493,VALID,228,VALID,0,
2013-09-04, 00:06:05,VALID,918.52,VALID,0,VALID,97.0537,VALID,0,VALID,19.4493,VALID,228,VALID,0,
2013-09-04, 00:07:05,VALID,918.51,VALID,0,VALID,97.0537,VALID,0,VALID,19.4493,VALID,228,VALID,0,
2013-09-04, 00:08:05,VALID,918.514,VALID,0,VALID,97.0461,VALID,0,VALID,19.4493,VALID,228,VALID,0,
2013-09-04, 00:09:05,VALID,918.448,VALID,0,VALID,97.0537,VALID,0,VALID,19.4313,VALID,228,VALID,0,
2013-09-04, 00:10:05,VALID,918.413,VALID,0,VALID,97.069,VALID,0,VALID,19.4313,VALID,228,VALID,0,
2013-09-04, 00:11:05,VALID,918.414,VALID,0,VALID,97.0461,VALID,0,VALID,19.4508,VALID,228,VALID,0,
2013-09-04, 00:12:05,VALID,918.413,VALID,0,VALID,97.0537,VALID,0,VALID,19.4313,VALID,228,VALID,0,
2013-09-04, 00:13:05,VALID,918.385,VALID,0,VALID,97.0613,VALID,0,VALID,19.4118,VALID,228,VALID,0,
2013-09-04, 00:14:05,VALID,918.379,VALID,0,VALID,97.069,VALID,0,VALID,19.4118,VALID,228,VALID,0,
2013-09-04, 00:15:05,VALID,918.361,VALID,0,VALID,97.0613,VALID,0,VALID,19.4313,VALID,228,VALID,0,
2013-09-04, 00:16:05,VALID,918.364,VALID,0,VALID,97.0766,VALID,0,VALID,19.3908,VALID,228,VALID,0,
2013-09-04, 00:17:05,VALID,918.338,VALID,0,VALID,97.0766,VALID,0,VALID,19.3908,VALID,228,VALID,0,
2013-09-04, 00:18:05,VALID,918.323,VALID,0,VALID,97.0766,VALID,0,VALID,19.3908,VALID,228,VALID,0,
2013-09-04, 00:19:05,VALID,918.312,VALID,0,VALID,97.0766,VALID,0,VALID,19.3908,VALID,228,VALID,0,
2013-09-04, 00:20:05,VALID,918.277,VALID,0,VALID,97.0842,VALID,0,VALID,19.3908,VALID,228,VALID,0,
2013-09-04, 00:21:05,VALID,918.289,VALID,0,VALID,97.0766,VALID,0,VALID,19.3908,VALID,228,VALID,0,
2013-09-04, 00:22:05,VALID,918.287,VALID,0,VALID,97.0842,VALID,0,VALID,19.4313,VALID,228,VALID,0,
2013-09-04, 00:23:05,VALID,918.284,VALID,0,VALID,97.069,VALID,0,VALID,19.4478,VALID,228,VALID,0,
2013-09-04, 00:24:05,VALID,918.277,VALID,0,VALID,97.0842,VALID,0,VALID,19.5078,VALID,228,VALID,0,
2013-09-04, 00:25:05,VALID,918.255,VALID,0,VALID,97.0994,VALID,0,VALID,19.5483,VALID,228,VALID,0,
2013-09-04, 00:26:05,VALID,918.25,VALID,0,VALID,97.0766,VALID,0,VALID,19.5483,VALID,228,VALID,0,
2013-09-04, 00:27:05,VALID,918.238,VALID,0,VALID,97.069,VALID,0,VALID,19.5078,VALID,228,VALID,0,
2013-09-04, 00:28:05,VALID,918.219,VALID,0,VALID,97.069,VALID,0,VALID,19.5483,VALID,228,VALID,0,
2013-09-04, 00:29:05,VALID,918.219,VALID,0,VALID,97.0766,VALID,0,VALID,19.5468,VALID,228,VALID,0,
2013-09-04, 00:30:05,VALID,918.2,VALID,0,VALID,97.0766,VALID,0,VALID,19.5873,VALID,228,VALID,0,
2013-09-04, 00:31:05,VALID,918.205,VALID,0,VALID,97.0766,VALID,0,VALID,19.6068,VALID,228,VALID,0,
2013-09-04, 00:32:05,VALID,918.176,VALID,0,VALID,97.069,VALID,0,VALID,19.6263,VALID,228,VALID,0,
2013-09-04, 00:33:05,VALID,918.201,VALID,0,VALID,97.069,VALID,0,VALID,19.6263,VALID,228,VALID,0,
2013-09-04, 00:34:05,VALID,918.167,VALID,0,VALID,97.069,VALID,0,VALID,19.5873,VALID,228,VALID,0,
2013-09-04, 00:35:05,VALID,918.188,VALID,0,VALID,97.0613,VALID,0,VALID,19.5273,VALID,228,VALID,0,
2013-09-04, 00:36:05,VALID,918.159,VALID,0,VALID,97.0613,VALID,0,VALID,19.5093,VALID,228,VALID,0,
2013-09-04, 00:37:05,VALID,918.182,VALID,0,VALID,97.0766,VALID,0,VALID,19.5288,VALID,228,VALID,0,
2013-09-04, 00:38:05,VALID,918.148,VALID,0,VALID,97.0766,VALID,0,VALID,19.5078,VALID,228,VALID,0,
2013-09-04, 00:39:05,VALID,918.157,VALID,0,VALID,97.069,VALID,0,VALID,19.5093,VALID,228,VALID,0,
2013-09-04, 00:40:05,VALID,918.156,VALID,0,VALID,97.0766,VALID,0,VALID,19.5288,VALID,228,VALID,0,
2013-09-04, 00:41:05,VALID,918.11,VALID,0,VALID,97.0766,VALID,0,VALID,19.5288,VALID,229,VALID,0,
2013-09-04, 00:42:05,VALID,918.104,VALID,0,VALID,97.0766,VALID,0,VALID,19.5288,VALID,228,VALID,0,
2013-09-04, 00:43:05,VALID,918.106,VALID,0,VALID,97.0766,VALID,0,VALID,19.5288,VALID,228,VALID,0,
2013-09-04, 00:44:05,VALID,918.072,VALID,0,VALID,97.0613,VALID,0,VALID,19.5288,VALID,228,VALID,0,
2013-09-04, 00:45:05,VALID,918.096,VALID,0,VALID,97.069,VALID,0,VALID,19.5483,VALID,228,VALID,0,
2013-09-04, 00:46:05,VALID,918.061,VALID,0,VALID,97.0766,VALID,0,VALID,19.5858,VALID,228,VALID,0,
2013-09-04, 00:47:05,VALID,918.095,VALID,0,VALID,97.0766,VALID,0,VALID,19.5873,VALID,229,VALID,0,
2013-09-04, 00:48:05,VALID,918.069,VALID,0,VALID,97.0766,VALID,0,VALID,19.5468,VALID,228,VALID,0,
2013-09-04, 00:49:05,VALID,918.052,VALID,0,VALID,97.069,VALID,0,VALID,19.5873,VALID,228,VALID,0,
2013-09-04, 00:50:05,VALID,918.062,VALID,0,VALID,97.0842,VALID,0,VALID,19.5663,VALID,228,VALID,0,
2013-09-04, 00:51:05,VALID,918.064,VALID,0,VALID,97.0918,VALID,0,VALID,19.6068,VALID,228,VALID,0,
2013-09-04, 00:52:05,VALID,918.062,VALID,0,VALID,97.0842,VALID,0,VALID,19.6068,VALID,228,VALID,0,
2013-09-04, 00:53:05,VALID,918.028,VALID,0,VALID,97.0766,VALID,0,VALID,19.6263,VALID,228,VALID,0,
2013-09-04, 00:54:05,VALID,918.004,VALID,0,VALID,97.0537,VALID,0,VALID,19.6263,VALID,228,VALID,0,
2013-09-04, 00:55:05,VALID,917.968,VALID,0,VALID,97.0842,VALID,0,VALID,19.6263,VALID,228,VALID,0,
2013-09-04, 00:56:05,VALID,917.983,VALID,0,VALID,97.0842,VALID,0,VALID,19.6248,VALID,228,VALID,0,
2013-09-04, 00:57:05,VALID,917.941,VALID,0,VALID,97.0766,VALID,0,VALID,19.6053,VALID,228,VALID,0,
2013-09-04, 00:58:05,VALID,917.938,VALID,0,VALID,97.0766,VALID,0,VALID,19.6458,VALID,228,VALID,0,
2013-09-04, 00:59:05,VALID,917.906,VALID,0,VALID,97.0918,VALID,0,VALID,19.6458,VALID,228,VALID,0,
2013-09-04, 01:00:05,VALID,917.961,VALID,0,VALID,97.0918,VALID,0,VALID,19.6458,VALID,228,VALID,0,
2013-09-04, 01:01:05,VALID,917.932,VALID,0,VALID,97.0918,VALID,0,VALID,19.6638,VALID,228,VALID,0,
2013-09-04, 01:02:05,VALID,917.919,VALID,0,VALID,97.0842,VALID,0,VALID,19.6638,VALID,228,VALID,0,
2013-09-04, 01:03:05,VALID,917.922,VALID,0,VALID,97.0766,VALID,0,VALID,19.7238,VALID,228,VALID,0,
2013-09-04, 01:04:05,VALID,917.893,VALID,0,VALID,97.0613,VALID,0,VALID,19.7238,VALID,228,VALID,0,
2013-09-04, 01:05:05,VALID,917.907,VALID,0,VALID,97.0994,VALID,0,VALID,19.7418,VALID,228,VALID,0,
2013-09-04, 01:06:05,VALID,917.889,VALID,0,VALID,97.0918,VALID,0,VALID,19.7238,VALID,228,VALID,0,
2013-09-04, 01:07:05,VALID,917.854,VALID,0,VALID,97.069,VALID,0,VALID,19.6653,VALID,228,VALID,0,
2013-09-04, 01:08:05,VALID,917.85,VALID,0,VALID,97.0918,VALID,0,VALID,19.6653,VALID,228,VALID,0,
2013-09-04, 01:09:05,VALID,917.827,VALID,0,VALID,97.0842,VALID,0,VALID,19.6653,VALID,228,VALID,0,
2013-09-04, 01:10:05,VALID,917.81,VALID,0,VALID,97.0766,VALID,0,VALID,19.5858,VALID,228,VALID,0,
2013-09-04, 01:11:05,VALID,917.808,VALID,0,VALID,97.0766,VALID,0,VALID,19.6053,VALID,229,VALID,0,
2013-09-04, 01:12:05,VALID,917.813,VALID,0,VALID,97.0537,VALID,0,VALID,19.6053,VALID,229,VALID,0,
2013-09-04, 01:13:05,VALID,917.812,VALID,0,VALID,97.0766,VALID,0,VALID,19.6653,VALID,228,VALID,0,
2013-09-04, 01:14:05,VALID,917.803,VALID,0,VALID,97.0842,VALID,0,VALID,19.6833,VALID,228,VALID,0,
2013-09-04, 01:15:05,VALID,917.766,VALID,0,VALID,97.0918,VALID,0,VALID,19.7028,VALID,228,VALID,0,
2013-09-04, 01:16:05,VALID,917.781,VALID,0,VALID,97.069,VALID,0,VALID,19.7043,VALID,228,VALID,0,
2013-09-04, 01:17:05,VALID,917.781,VALID,0,VALID,97.0842,VALID,0,VALID,19.6833,VALID,228,VALID,0,
2013-09-04, 01:18:05,VALID,917.792,VALID,0,VALID,97.0613,VALID,0,VALID,19.6848,VALID,258,VALID,0,
2013-09-04, 01:19:05,VALID,917.806,VALID,0,VALID,97.0766,VALID,0,VALID,19.6833,VALID,258,VALID,0,
2013-09-04, 01:20:05,VALID,917.77,VALID,0,VALID,97.0766,VALID,0,VALID,19.7433,VALID,258,VALID,0,
2013-09-04, 01:21:05,VALID,917.738,VALID,0,VALID,97.069,VALID,0,VALID,19.7223,VALID,258,VALID,0,
2013-09-04, 01:22:05,VALID,917.721,VALID,0,VALID,97.0842,VALID,0,VALID,19.6848,VALID,258,VALID,0,
2013-09-04, 01:23:05,VALID,917.717,VALID,0,VALID,97.0766,VALID,0,VALID,19.6443,VALID,4,VALID,0,
2013-09-04, 01:24:05,VALID,917.708,VALID,0,VALID,97.0842,VALID,0,VALID,19.6248,VALID,354,VALID,0,
2013-09-04, 01:25:05,VALID,917.681,VALID,0,VALID,97.0842,VALID,0,VALID,19.6068,VALID,354,VALID,0,
2013-09-04, 01:26:05,VALID,917.638,VALID,0,VALID,97.0766,VALID,0,VALID,19.6068,VALID,355,VALID,0,
2013-09-04, 01:27:05,VALID,917.636,VALID,0,VALID,97.0918,VALID,0,VALID,19.6263,VALID,355,VALID,0,
2013-09-04, 01:28:05,VALID,917.625,VALID,0,VALID,97.0766,VALID,0,VALID,19.6068,VALID,355,VALID,0,
2013-09-04, 01:29:05,VALID,917.602,VALID,0,VALID,97.0842,VALID,0,VALID,19.6068,VALID,355,VALID,0,
2013-09-04, 01:30:05,VALID,917.576,VALID,0,VALID,97.0842,VALID,0,VALID,19.5663,VALID,355,VALID,0,
2013-09-04, 01:31:05,VALID,917.594,VALID,0,VALID,97.0918,VALID,0.107441,VALID,19.5258,VALID,355,VALID,0,
2013-09-04, 01:32:05,VALID,917.557,VALID,0,VALID,97.0994,VALID,0,VALID,19.5858,VALID,355,VALID,0,
2013-09-04, 01:33:05,VALID,917.605,VALID,0,VALID,97.0918,VALID,0.107441,VALID,19.6248,INVALID,360,VALID,0,
2013-09-04, 01:34:05,VALID,917.551,VALID,0,VALID,97.0918,VALID,0.107441,VALID,19.5843,VALID,355,VALID,0,
2013-09-04, 01:35:05,VALID,917.557,VALID,0,VALID,97.1071,VALID,0,VALID,19.5843,INVALID,360,VALID,0,
2013-09-04, 01:36:05,VALID,917.543,VALID,0,VALID,97.0994,VALID,0.107441,VALID,19.6233,VALID,355,VALID,0,
2013-09-04, 01:37:05,VALID,917.551,VALID,0,VALID,97.0918,VALID,0.107441,VALID,19.6233,VALID,355,VALID,0,
2013-09-04, 01:38:05,VALID,917.519,VALID,0,VALID,97.0842,VALID,0.107441,VALID,19.6233,VALID,355,VALID,0,
2013-09-04, 01:39:05,VALID,917.502,VALID,0,VALID,97.0994,VALID,0.107441,VALID,19.6443,VALID,355,VALID,0,
2013-09-04, 01:40:05,VALID,917.486,VALID,0,VALID,97.0994,VALID,0,VALID,19.6428,VALID,355,VALID,0,
2013-09-04, 01:41:05,VALID,917.457,VALID,0,VALID,97.0918,VALID,0.107441,VALID,19.6818,VALID,355,VALID,0,
2013-09-04, 01:42:05,VALID,917.437,VALID,0,VALID,97.0994,VALID,0.107441,VALID,19.6818,VALID,355,VALID,0,
2013-09-04, 01:43:05,VALID,917.425,VALID,0,VALID,97.0918,VALID,0,VALID,19.7223,VALID,355,VALID,0,
2013-09-04, 01:44:05,VALID,917.416,VALID,0,VALID,97.1071,VALID,0,VALID,19.7013,VALID,355,VALID,0,
2013-09-04, 01:45:05,VALID,917.4,VALID,0,VALID,97.0918,VALID,0,VALID,19.7238,VALID,355,VALID,0,
2013-09-04, 01:46:05,VALID,917.391,VALID,0,VALID,97.0918,VALID,0,VALID,19.7433,VALID,355,VALID,0,
2013-09-04, 01:47:05,VALID,917.398,VALID,0,VALID,97.0842,VALID,0,VALID,19.7013,VALID,355,VALID,0,
2013-09-04, 01:48:05,VALID,917.389,VALID,0,VALID,97.0918,VALID,0,VALID,19.7238,VALID,355,VALID,0,
2013-09-04, 01:49:05,VALID,917.349,VALID,0,VALID,97.0766,VALID,0,VALID,19.7223,VALID,355,VALID,0,
2013-09-04, 01:50:05,VALID,917.342,VALID,0,VALID,97.069,VALID,0,VALID,19.7238,VALID,358,VALID,0,
2013-09-04, 01:51:05,VALID,917.302,VALID,0,VALID,97.0766,VALID,0,VALID,19.7238,VALID,10,VALID,0,
2013-09-04, 01:52:05,VALID,917.294,VALID,0,VALID,97.0918,VALID,0,VALID,19.7433,VALID,10,VALID,0,
2013-09-04, 01:53:05,VALID,917.298,VALID,0,VALID,97.0918,VALID,0,VALID,19.7208,VALID,10,VALID,0,
2013-09-04, 01:54:05,VALID,917.264,VALID,0,VALID,97.0994,VALID,0,VALID,19.7418,VALID,10,VALID,0,
2013-09-04, 01:55:05,VALID,917.246,VALID,0,VALID,97.0918,VALID,0,VALID,19.7223,VALID,10,VALID,0,
2013-09-04, 01:56:05,VALID,917.25,VALID,0,VALID,97.0766,VALID,0,VALID,19.6833,VALID,10,VALID,0,
2013-09-04, 01:57:05,VALID,917.238,VALID,0,VALID,97.0918,VALID,0,VALID,19.6248,VALID,10,VALID,0,
2013-09-04, 01:58:05,VALID,917.245,VALID,0,VALID,97.0842,VALID,0,VALID,19.6653,VALID,10,VALID,0,
2013-09-04, 01:59:05,VALID,917.258,VALID,0,VALID,97.0994,VALID,0,VALID,19.6248,VALID,10,VALID,0,
2013-09-04, 02:00:05,VALID,917.232,VALID,0,VALID,97.0918,VALID,0,VALID,19.6248,VALID,10,VALID,0,
2013-09-04, 02:01:05,VALID,917.255,VALID,0,VALID,97.1071,VALID,0,VALID,19.6443,VALID,10,VALID,0,
2013-09-04, 02:02:05,VALID,917.204,VALID,0,VALID,97.1071,VALID,0,VALID,19.6443,VALID,10,VALID,0,
2013-09-04, 02:03:05,VALID,917.226,VALID,0,VALID,97.1071,VALID,0,VALID,19.6443,VALID,10,VALID,0,
2013-09-04, 02:04:05,VALID,917.197,VALID,0,VALID,97.0918,VALID,0,VALID,19.6458,VALID,10,VALID,0,
2013-09-04, 02:05:05,VALID,917.187,VALID,0,VALID,97.0918,VALID,0,VALID,19.6638,VALID,10,VALID,0,
2013-09-04, 02:06:05,VALID,917.15,VALID,0,VALID,97.0842,VALID,0,VALID,19.6248,VALID,10,VALID,0,
2013-09-04, 02:07:05,VALID,917.131,VALID,0,VALID,97.1147,VALID,0,VALID,19.6263,VALID,10,VALID,0,
2013-09-04, 02:08:05,VALID,917.097,VALID,0,VALID,97.1147,VALID,0,VALID,19.6068,VALID,10,VALID,0,
2013-09-04, 02:09:05,VALID,917.108,VALID,0,VALID,97.0994,VALID,0,VALID,19.6053,VALID,10,VALID,0,
2013-09-04, 02:10:05,VALID,917.072,VALID,0,VALID,97.1071,VALID,0,VALID,19.6263,VALID,10,VALID,0,
2013-09-04, 02:11:05,VALID,917.056,VALID,0,VALID,97.0994,VALID,0,VALID,19.6038,VALID,10,VALID,0,
2013-09-04, 02:12:05,VALID,917.059,VALID,0,VALID,97.1147,VALID,0,VALID,19.6053,VALID,10,VALID,0,
2013-09-04, 02:13:05,VALID,917.053,VALID,0,VALID,97.0994,VALID,0,VALID,19.5858,VALID,10,VALID,0,
2013-09-04, 02:14:05,VALID,917.037,VALID,0,VALID,97.1147,VALID,0,VALID,19.5873,VALID,10,VALID,0,
2013-09-04, 02:15:05,VALID,917.061,VALID,0,VALID,97.1223,VALID,0.107441,VALID,19.5858,VALID,10,VALID,0,
2013-09-04, 02:16:05,VALID,917.049,VALID,0,VALID,97.1147,VALID,0,VALID,19.5858,VALID,10,VALID,0,
2013-09-04, 02:17:05,VALID,917.001,VALID,0,VALID,97.1147,VALID,0,VALID,19.5663,VALID,10,VALID,0,
2013-09-04, 02:18:05,VALID,917.083,VALID,0,VALID,97.1147,VALID,0,VALID,19.5648,VALID,10,VALID,0,
2013-09-04, 02:19:05,VALID,917.059,VALID,0,VALID,97.1071,VALID,0,VALID,19.5663,VALID,10,VALID,0,
2013-09-04, 02:20:05,VALID,917.049,VALID,0,VALID,97.1147,VALID,0.107441,VALID,19.5453,VALID,10,VALID,0,
2013-09-04, 02:21:05,VALID,917.027,VALID,0,VALID,97.0994,VALID,0.107441,VALID,19.5258,VALID,10,VALID,0,
2013-09-04, 02:22:05,VALID,917.049,VALID,0,VALID,97.0994,VALID,0,VALID,19.5648,VALID,10,VALID,0,
2013-09-04, 02:23:05,VALID,917.007,VALID,0,VALID,97.1071,VALID,0,VALID,19.6053,VALID,10,VALID,0,
2013-09-04, 02:24:05,VALID,916.993,VALID,0,VALID,97.1376,VALID,0,VALID,19.6248,VALID,10,VALID,0,
2013-09-04, 02:25:05,VALID,916.993,VALID,0,VALID,97.1299,VALID,0,VALID,19.6038,VALID,10,VALID,0,
2013-09-04, 02:26:05,VALID,916.961,VALID,0,VALID,97.1071,VALID,0,VALID,19.6038,VALID,10,VALID,0,
2013-09-04, 02:27:05,VALID,916.964,VALID,0,VALID,97.1299,VALID,0,VALID,19.5843,VALID,10,VALID,0,
2013-09-04, 02:28:05,VALID,916.941,VALID,0,VALID,97.1071,VALID,0.107441,VALID,19.6053,VALID,10,VALID,0,
2013-09-04, 02:29:05,VALID,916.937,VALID,0,VALID,97.1299,VALID,0,VALID,19.6053,VALID,10,VALID,0,
2013-09-04, 02:30:05,VALID,916.912,VALID,0,VALID,97.1223,VALID,0,VALID,19.6248,VALID,10,VALID,0,
2013-09-04, 02:31:05,VALID,916.897,VALID,0,VALID,97.1071,VALID,0,VALID,19.6053,VALID,10,VALID,0,
2013-09-04, 02:32:05,VALID,916.864,VALID,0,VALID,97.1223,VALID,0,VALID,19.5453,VALID,10,VALID,0,
2013-09-04, 02:33:05,VALID,916.881,VALID,0,VALID,97.1147,VALID,0,VALID,19.5858,VALID,10,VALID,0,
2013-09-04, 02:34:05,VALID,916.857,VALID,0,VALID,97.1299,VALID,0,VALID,19.5858,VALID,10,VALID,0,
2013-09-04, 02:35:05,VALID,916.854,VALID,0,VALID,97.1452,VALID,0,VALID,19.5438,VALID,10,VALID,0,
2013-09-04, 02:36:05,VALID,916.854,VALID,0,VALID,97.1223,VALID,0.107441,VALID,19.5843,VALID,10,VALID,0,
2013-09-04, 02:37:05,VALID,916.853,VALID,0,VALID,97.1299,VALID,0,VALID,19.5843,VALID,10,VALID,0,
2013-09-04, 02:38:05,VALID,916.839,VALID,0,VALID,97.1147,VALID,0,VALID,19.5843,VALID,10,VALID,0,
2013-09-04, 02:39:05,VALID,916.846,VALID,0,VALID,97.1147,VALID,0,VALID,19.6038,VALID,10,VALID,0,
2013-09-04, 02:40:05,VALID,916.817,VALID,0,VALID,97.1223,VALID,0.107441,VALID,19.6233,VALID,10,VALID,0,
2013-09-04, 02:41:04,VALID,916.797,VALID,0,VALID,97.1223,VALID,0.107441,VALID,19.6233,VALID,10,VALID,0,
2013-09-04, 02:42:04,VALID,916.782,VALID,0,VALID,97.1147,VALID,0.107441,VALID,19.6233,VALID,10,VALID,0,
2013-09-04, 02:43:04,VALID,916.75,VALID,0,VALID,97.1147,VALID,0,VALID,19.6443,VALID,10,VALID,0,
2013-09-04, 02:44:04,VALID,916.739,VALID,0,VALID,97.0994,VALID,0.107441,VALID,19.6428,VALID,10,VALID,0,
2013-09-04, 02:45:04,VALID,916.72,VALID,0,VALID,97.1147,VALID,0,VALID,19.6623,VALID,10,VALID,0,
2013-09-04, 02:46:04,VALID,916.738,VALID,0,VALID,97.1452,VALID,0,VALID,19.6233,VALID,10,VALID,0,
2013-09-04, 02:47:04,VALID,916.74,VALID,0,VALID,97.1528,VALID,0,VALID,19.6038,VALID,10,VALID,0,
2013-09-04, 02:48:04,VALID,916.733,VALID,0,VALID,97.1376,VALID,0.107441,VALID,19.5648,VALID,10,VALID,0,
2013-09-04, 02:49:04,VALID,916.718,VALID,0,VALID,97.1147,VALID,0.107441,VALID,19.5843,VALID,10,VALID,0,
2013-09-04, 02:50:04,VALID,916.719,VALID,0,VALID,97.1528,VALID,0.107441,VALID,19.5648,VALID,10,VALID,0,
2013-09-04, 02:51:04,VALID,916.708,VALID,0,VALID,97.1223,VALID,0.107441,VALID,19.5648,VALID,10,VALID,0,
2013-09-04, 02:52:04,VALID,916.709,VALID,0,VALID,97.1299,VALID,0,VALID,19.6038,VALID,10,VALID,0,
2013-09-04, 02:53:04,VALID,916.714,VALID,0,VALID,97.1223,VALID,0,VALID,19.5843,VALID,10,VALID,0,
2013-09-04, 02:54:04,VALID,916.717,VALID,0,VALID,97.1376,VALID,0,VALID,19.6053,VALID,10,VALID,0,
2013-09-04, 02:55:04,VALID,916.691,VALID,0,VALID,97.1147,VALID,0.107441,VALID,19.5648,VALID,10,VALID,0,
2013-09-04, 02:56:04,VALID,916.696,VALID,0,VALID,97.1376,VALID,0,VALID,19.5663,VALID,10,VALID,0,
2013-09-04, 02:57:04,VALID,916.681,VALID,0,VALID,97.1452,VALID,0.107441,VALID,19.5243,VALID,10,VALID,0,
2013-09-04, 02:58:04,VALID,916.668,VALID,0,VALID,97.1223,VALID,0.107441,VALID,19.5648,VALID,10,VALID,0,
2013-09-04, 02:59:04,VALID,916.658,VALID,0,VALID,97.1299,VALID,0.107441,VALID,19.5843,VALID,10,VALID,0,
2013-09-04, 03:00:04,VALID,916.647,VALID,0,VALID,97.1376,VALID,0,VALID,19.6053,VALID,10,VALID,0,
2013-09-04, 03:01:04,VALID,916.654,VALID,0,VALID,97.1299,VALID,0,VALID,19.6053,VALID,10,VALID,0,
2013-09-04, 03:02:04,VALID,916.677,VALID,0,VALID,97.1604,VALID,0,VALID,19.6053,VALID,10,VALID,0,
2013-09-04, 03:03:04,VALID,916.678,VALID,0,VALID,97.1299,VALID,0,VALID,19.5873,VALID,10,VALID,0,
2013-09-04, 03:04:04,VALID,916.679,VALID,0,VALID,97.1452,VALID,0,VALID,19.5663,VALID,10,VALID,0,
2013-09-04, 03:05:04,VALID,916.651,VALID,0,VALID,97.1376,VALID,0,VALID,19.5663,VALID,10,VALID,0,
2013-09-04, 03:06:04,VALID,916.664,VALID,0,VALID,97.1376,VALID,0,VALID,19.5678,VALID,10,VALID,0,
2013-09-04, 03:07:04,VALID,916.664,VALID,0,VALID,97.1452,VALID,0,VALID,19.5483,VALID,10,VALID,0,
2013-09-04, 03:08:04,VALID,916.644,VALID,0,VALID,97.1376,VALID,0,VALID,19.5288,VALID,10,VALID,0,
2013-09-04, 03:09:04,VALID,916.667,VALID,0,VALID,97.1452,VALID,0,VALID,19.5678,VALID,10,VALID,0,
2013-09-04, 03:10:04,VALID,916.657,VALID,0,VALID,97.1376,VALID,0,VALID,19.5468,VALID,10,VALID,0,
2013-09-04, 03:11:04,VALID,916.638,VALID,0,VALID,97.1528,VALID,0,VALID,19.5273,VALID,10,VALID,0,
2013-09-04, 03:12:04,VALID,916.61,VALID,0,VALID,97.1376,VALID,0,VALID,19.5468,VALID,10,VALID,0,
2013-09-04, 03:13:04,VALID,916.635,VALID,0,VALID,97.1299,VALID,0,VALID,19.5468,VALID,10,VALID,0,
2013-09-04, 03:14:04,VALID,916.64,VALID,0,VALID,97.1376,VALID,0,VALID,19.5468,VALID,10,VALID,0,
2013-09-04, 03:15:04,VALID,916.642,VALID,0,VALID,97.1376,VALID,0,VALID,19.5468,VALID,10,VALID,0,
2013-09-04, 03:16:04,VALID,916.645,VALID,0,VALID,97.1299,VALID,0,VALID,19.5873,VALID,10,VALID,0,
2013-09-04, 03:17:04,VALID,916.623,VALID,0,VALID,97.1299,VALID,0,VALID,19.5858,VALID,10,VALID,0,
2013-09-04, 03:18:04,VALID,916.625,VALID,0,VALID,97.1376,VALID,0,VALID,19.6053,VALID,10,VALID,0,
2013-09-04, 03:19:04,VALID,916.632,VALID,0,VALID,97.1299,VALID,0,VALID,19.6053,VALID,10,VALID,0,
2013-09-04, 03:20:04,VALID,916.634,VALID,0,VALID,97.1452,VALID,0,VALID,19.6053,VALID,10,VALID,0,
2013-09-04, 03:21:04,VALID,916.609,VALID,0,VALID,97.1223,VALID,0,VALID,19.6263,VALID,10,VALID,0,
2013-09-04, 03:22:04,VALID,916.572,VALID,0,VALID,97.1299,VALID,0,VALID,19.6068,VALID,10,VALID,0,
2013-09-04, 03:23:04,VALID,916.553,VALID,0,VALID,97.1376,VALID,0,VALID,19.6053,VALID,10,VALID,0,
2013-09-04, 03:24:04,VALID,916.538,VALID,0,VALID,97.1452,VALID,0,VALID,19.5858,VALID,10,VALID,0,
2013-09-04, 03:25:04,VALID,916.558,VALID,0,VALID,97.1376,VALID,0,VALID,19.5468,VALID,10,VALID,0,
2013-09-04, 03:26:04,VALID,916.553,VALID,0,VALID,97.1452,VALID,0,VALID,19.5273,VALID,10,VALID,0,
2013-09-04, 03:27:04,VALID,916.575,VALID,0,VALID,97.1452,VALID,0,VALID,19.5288,VALID,10,VALID,0,
2013-09-04, 03:28:04,VALID,916.541,VALID,0,VALID,97.1604,VALID,0,VALID,19.4688,VALID,10,VALID,0,
2013-09-04, 03:29:04,VALID,916.617,VALID,0,VALID,97.1223,VALID,0,VALID,19.5093,VALID,10,VALID,0,
2013-09-04, 03:30:04,VALID,916.586,VALID,0,VALID,97.1604,VALID,0,VALID,19.4883,VALID,10,VALID,0,
2013-09-04, 03:31:04,VALID,916.655,VALID,0,VALID,97.1452,VALID,0,VALID,19.4688,VALID,111,VALID,0,
2013-09-04, 03:32:04,VALID,916.648,VALID,0,VALID,97.1452,VALID,0,VALID,19.4703,VALID,115,VALID,0,
2013-09-04, 03:33:04,VALID,916.656,VALID,0,VALID,97.1452,VALID,0,VALID,19.4883,VALID,115,VALID,0,
2013-09-04, 03:34:04,VALID,916.667,VALID,0,VALID,97.1376,VALID,0,VALID,19.4688,VALID,115,VALID,0,
2013-09-04, 03:35:04,VALID,916.675,VALID,0,VALID,97.1452,VALID,0,VALID,19.4883,VALID,67,VALID,0,
2013-09-04, 03:36:04,VALID,916.659,VALID,0,VALID,97.1528,VALID,0,VALID,19.4493,VALID,68,VALID,0,
2013-09-04, 03:37:04,VALID,916.679,VALID,0,VALID,97.1299,VALID,0,VALID,19.4898,VALID,50,VALID,0,
2013-09-04, 03:38:04,VALID,916.68,VALID,0,VALID,97.1376,VALID,0,VALID,19.4493,VALID,50,VALID,0,
2013-09-04, 03:39:04,VALID,916.67,VALID,0,VALID,97.1528,VALID,0,VALID,19.4703,VALID,50,VALID,0,
2013-09-04, 03:40:04,VALID,916.668,VALID,0,VALID,97.1528,VALID,0,VALID,19.4508,VALID,50,VALID,0,
2013-09-04, 03:41:04,VALID,916.702,VALID,0,VALID,97.1604,VALID,0,VALID,19.4313,VALID,50,VALID,0,
2013-09-04, 03:42:04,VALID,916.68,VALID,0,VALID,97.1528,VALID,0,VALID,19.3908,VALID,50,VALID,0,
2013-09-04, 03:43:04,VALID,916.719,VALID,0,VALID,97.1376,VALID,0,VALID,19.4118,VALID,50,VALID,0,
2013-09-04, 03:44:04,VALID,916.731,VALID,0,VALID,97.1452,VALID,0,VALID,19.4103,VALID,50,VALID,0,
2013-09-04, 03:45:04,VALID,916.713,VALID,0,VALID,97.1376,VALID,0.107441,VALID,19.4298,VALID,50,VALID,0,
2013-09-04, 03:46:04,VALID,916.736,VALID,0,VALID,97.1299,VALID,0,VALID,19.4088,VALID,50,VALID,0,
2013-09-04, 03:47:04,VALID,916.702,VALID,0,VALID,97.1376,VALID,0.107441,VALID,19.4088,VALID,50,VALID,0,
2013-09-04, 03:48:04,VALID,916.679,VALID,0,VALID,97.1452,VALID,0.107441,VALID,19.4088,VALID,50,VALID,0,
2013-09-04, 03:49:04,VALID,916.69,VALID,0,VALID,97.1452,VALID,0.107441,VALID,19.4088,VALID,50,VALID,0,
2013-09-04, 03:50:04,VALID,916.669,VALID,0,VALID,97.1528,VALID,0.107441,VALID,19.4493,VALID,50,VALID,0,
2013-09-04, 03:51:04,VALID,916.665,VALID,0,VALID,97.1681,VALID,0.107441,VALID,19.4478,VALID,50,VALID,0,
2013-09-04, 03:52:04,VALID,916.643,VALID,0,VALID,97.1681,VALID,0,VALID,19.4493,VALID,50,VALID,0,
2013-09-04, 03:53:04,VALID,916.628,VALID,0,VALID,97.1376,VALID,0,VALID,19.4298,VALID,50,VALID,0,
2013-09-04, 03:54:04,VALID,916.642,VALID,0,VALID,97.1452,VALID,0.107441,VALID,19.4103,VALID,50,VALID,0,
2013-09-04, 03:55:04,VALID,916.609,VALID,0,VALID,97.1376,VALID,0,VALID,19.4088,VALID,50,VALID,0,
2013-09-04, 03:56:04,VALID,916.594,VALID,0,VALID,97.1452,VALID,0.107441,VALID,19.3908,VALID,110,VALID,0,
2013-09-04, 03:57:04,VALID,916.592,VALID,0,VALID,97.1604,VALID,0.107441,VALID,19.3908,VALID,111,VALID,0,
2013-09-04, 03:58:04,VALID,916.615,VALID,0,VALID,97.1452,VALID,0,VALID,19.3503,VALID,110,VALID,0,